WB7HPF Weather Reports


time (UTC)temp
C
wind
direction
speed
KPH
gust
KPH
rain 1hr
cm
rain 24hr
cm
rain mn
cm
humidity
%
barometer
mb
20260505034430 15 295 1.6 3.2 0.00 0.00 0.00 75 1007.4
20260505032430 16 130 3.2 9.7 0.00 0.00 0.00 72 1007.2
20260505031431 16 26 3.2 9.7 0.00 0.00 0.00 72 1007.1
20260505030431 16 347 4.8 11.3 0.00 0.00 0.00 71 1007.1
20260505024432 17 67 8.0 16.1 0.00 0.00 0.00 68 1007.0
20260505023433 18 313 6.4 12.9 0.00 0.00 0.00 66 1006.9
20260505022432 18 209 4.8 11.3 0.00 0.00 0.00 65 1006.9
20260505021440 18 303 6.4 11.3 0.00 0.00 0.00 63 1006.9
20260505020440 19 252 6.4 16.1 0.00 0.00 0.00 62 1007.1
20260505015436 19 344 8.0 14.5 0.00 0.00 0.00 61 1007.1
20260505014429 20 308 6.4 14.5 0.00 0.00 0.00 60 1007.2
20260505013434 20 292 6.4 12.9 0.00 0.00 0.00 58 1007.3
20260505012439 20 43 8.0 16.1 0.00 0.00 0.00 58 1007.5
20260505011431 21 0 9.7 16.1 0.00 0.00 0.00 55 1007.5
20260505010432 21 292 9.7 14.5 0.00 0.00 0.00 55 1007.5
20260505005431 22 299 6.4 11.3 0.00 0.00 0.00 55 1007.6
20260505004428 22 314 4.8 11.3 0.00 0.00 0.00 54 1007.5
20260505003429 22 335 6.4 14.5 0.00 0.00 0.00 54 1007.6
20260505002429 22 342 6.4 14.5 0.00 0.00 0.00 55 1007.5
20260505001433 22 17 6.4 14.5 0.00 0.00 0.00 55 1007.5
20260505000434 22 320 9.7 16.1 0.00 0.00 0.00 56 1007.5
20260504235430 22 306 9.7 16.1 0.00 0.00 0.00 54 1007.6
20260504234431 22 301 8.0 12.9 0.00 0.00 0.00 53 1007.5
20260504233426 23 345 8.0 16.1 0.00 0.00 0.00 53 1007.5
20260504232424 23 267 8.0 16.1 0.00 0.00 0.00 53 1007.6
20260504231424 22 343 9.7 17.7 0.00 0.00 0.00 54 1007.6
20260504230424 22 347 9.7 17.7 0.00 0.00 0.00 54 1007.7
20260504225426 22 292 9.7 19.3 0.00 0.00 0.00 53 1007.8
20260504224425 22 317 11.3 20.9 0.00 0.00 0.00 52 1007.9
20260504223426 22 306 9.7 20.9 0.00 0.00 0.00 51 1008.0
20260504222425 22 299 9.7 17.7 0.00 0.00 0.00 53 1008.0
20260504221425 22 298 6.4 14.5 0.00 0.00 0.00 51 1008.0
20260504214424 23 314 1.6 9.7 0.00 0.00 0.00 52 1008.2
20260504213424 23 299 0.0 3.2 0.00 0.00 0.00 53 1008.4
20260504212428 22 126 0.0 3.2 0.00 0.00 0.00 58 1008.4
20260504210424 21 311 1.6 6.4 0.00 0.00 0.00 60 1008.5
20260504205424 21 307 1.6 6.4 0.00 0.00 0.00 58 1008.5
20260504204424 21 300 1.6 6.4 0.00 0.00 0.00 57 1008.4
20260504203424 20 304 1.6 6.4 0.00 0.00 0.00 58 1008.5
20260504202424 20 315 1.6 11.3 0.00 0.00 0.00 59 1008.5
20260504201424 21 311 1.6 8.0 0.00 0.00 0.00 56 1008.5
20260504200424 22 304 1.6 8.0 0.00 0.00 0.00 53 1008.5
20260504195424 22 307 1.6 6.4 0.00 0.00 0.00 53 1008.5
20260504194421 21 307 1.6 6.4 0.00 0.00 0.00 55 1008.4
20260504193421 21 309 1.6 6.4 0.00 0.00 0.00 53 1008.5
20260504192422 21 311 1.6 8.0 0.00 0.00 0.00 51 1008.5
20260504191426 21 39 1.6 6.4 0.00 0.00 0.00 51 1008.4
20260504190422 22 307 1.6 6.4 0.00 0.00 0.00 50 1008.4
20260504185422 22 103 0.0 4.8 0.00 0.00 0.00 50 1008.4
20260504184422 22 123 1.6 6.4 0.00 0.00 0.00 52 1008.5
20260504183422 21 339 0.0 6.4 0.00 0.00 0.00 53 1008.5
20260504182422 21 294 1.6 9.7 0.00 0.00 0.00 54 1008.7
20260504181421 21 304 1.6 9.7 0.00 0.00 0.00 55 1008.8
20260504180421 21 306 1.6 8.0 0.00 0.00 0.00 55 1008.7
20260504175421 20 300 1.6 6.4 0.00 0.00 0.00 55 1008.6
20260504174420 21 332 1.6 6.4 0.00 0.00 0.00 54 1008.5
20260504173424 21 309 0.0 3.2 0.00 0.00 0.00 54 1008.5
20260504172421 21 122 0.0 1.6 0.00 0.00 0.00 57 1008.6
20260504171421 20 41 0.0 3.2 0.00 0.00 0.00 58 1008.7
20260504170421 19 299 0.0 6.4 0.00 0.00 0.00 57 1008.7
20260504160418 21 315 0.0 3.2 0.00 0.00 0.00 52 1008.5
20260504150418 20 334 0.0 1.6 0.00 0.00 0.00 55 1008.1
20260504140413 16 331 0.0 3.2 0.00 0.00 0.00 68 1007.8
20260504130412 11 123 0.0 0.0 0.00 0.00 0.00 75 1007.4
20260504110409 11 273 0.0 0.0 0.00 0.00 0.00 77 1007.4
20260504080403 16 105 0.0 0.0 0.00 0.00 0.00 49 1006.8
20260504070359 14 118 0.0 0.0 0.00 0.00 0.00 60 1007.1
20260504050359 16 164 0.0 1.6 0.00 0.00 0.00 54 1007.6
20260504045357 16 194 0.0 0.0 0.00 0.00 0.00 57 1007.6
20260504044358 16 223 0.0 0.0 0.00 0.00 0.00 62 1007.5
20260504043358 17 139 0.0 0.0 0.00 0.00 0.00 57 1007.5
20260504042359 17 138 0.0 0.0 0.00 0.00 0.00 53 1007.4
20260504041357 18 139 0.0 0.0 0.00 0.00 0.00 51 1007.4